Time,TemperatureF,DewpointF,PressureIn,WindDirection,WindDirectionDegrees,WindSpeedMPH,WindSpeedGustMPH,Humidity,HourlyPrecipIn,Conditions,Clouds,dailyrainin,SoftwareType,DateUTC
2013-02-15 00:00:00,32.4,30.3,30.52,North,351,0.0,7.0,92,0.00,,---,0.00,VWS V14.01,2013-02-15 08:00:00,
2013-02-15 00:04:00,32.5,30.4,30.52,North,355,0.0,1.0,92,0.00,,---,0.00,VWS V14.01,2013-02-15 08:04:00,
2013-02-15 00:09:00,32.5,30.2,30.52,North,350,0.0,1.0,91,0.00,,---,0.00,VWS V14.01,2013-02-15 08:09:00,
2013-02-15 00:14:00,32.3,30.0,30.52,North,351,0.0,1.0,91,0.00,,---,0.00,VWS V14.01,2013-02-15 08:14:00,
2013-02-15 00:15:00,32.2,29.9,30.52,North,355,0.0,1.0,91,0.00,,---,0.00,VWS V14.01,2013-02-15 08:15:00,
2013-02-15 00:19:00,31.8,29.2,30.52,North,351,0.0,0.0,90,0.00,,---,0.00,VWS V14.01,2013-02-15 08:19:00,
2013-02-15 00:24:00,31.4,29.1,30.52,North,350,0.0,0.0,91,0.00,,---,0.00,VWS V14.01,2013-02-15 08:24:00,
2013-02-15 00:29:00,31.4,29.4,30.52,North,350,0.0,0.0,92,0.00,,---,0.00,VWS V14.01,2013-02-15 08:29:00,
2013-02-15 00:30:00,31.4,29.4,30.52,North,355,0.0,0.0,92,0.00,,---,0.00,VWS V14.01,2013-02-15 08:30:00,
2013-02-15 00:34:00,31.4,29.4,30.52,North,355,0.0,0.0,92,0.00,,---,0.00,VWS V14.01,2013-02-15 08:34:00,
2013-02-15 00:39:00,31.5,29.5,30.52,NNE,13,0.0,0.0,92,0.00,,---,0.00,VWS V14.01,2013-02-15 08:39:00,
2013-02-15 00:44:00,31.7,29.6,30.52,NNE,14,0.0,3.0,92,0.00,,---,0.00,VWS V14.01,2013-02-15 08:44:00,
2013-02-15 00:45:00,31.7,29.6,30.52,NNE,14,0.0,3.0,92,0.00,,---,0.00,VWS V14.01,2013-02-15 08:45:00,
2013-02-15 00:49:00,31.4,29.4,30.52,NE,44,3.0,3.0,92,0.00,,---,0.00,VWS V14.01,2013-02-15 08:49:00,
2013-02-15 00:54:00,31.2,29.1,30.52,NE,44,0.0,3.0,92,0.00,,---,0.00,VWS V14.01,2013-02-15 08:54:00,
2013-02-15 00:59:00,31.0,29.0,30.52,NE,44,0.0,3.0,92,0.00,,---,0.00,VWS V14.01,2013-02-15 08:59:00,
2013-02-15 01:00:00,31.0,29.0,30.52,NE,44,0.0,3.0,92,0.00,,---,0.00,VWS V14.01,2013-02-15 09:00:00,
2013-02-15 01:04:00,30.6,28.6,30.51,NE,44,0.0,0.0,92,0.00,,---,0.00,VWS V14.01,2013-02-15 09:04:00,
2013-02-15 01:09:00,30.1,27.8,30.51,NE,41,0.0,0.0,91,0.00,,---,0.00,VWS V14.01,2013-02-15 09:09:00,
2013-02-15 01:14:00,29.1,26.5,30.51,NE,41,0.0,0.0,90,0.00,,---,0.00,VWS V14.01,2013-02-15 09:14:00,
2013-02-15 01:15:00,29.0,26.7,30.51,NE,41,0.0,0.0,91,0.00,,---,0.00,VWS V14.01,2013-02-15 09:15:00,
2013-02-15 01:19:00,28.8,26.5,30.51,NE,41,0.0,0.0,91,0.00,,---,0.00,VWS V14.01,2013-02-15 09:19:00,
2013-02-15 01:24:00,28.7,26.7,30.51,NE,41,0.0,0.0,92,0.00,,---,0.00,VWS V14.01,2013-02-15 09:24:00,
2013-02-15 01:29:00,28.8,26.8,30.51,NE,41,0.0,0.0,92,0.00,,---,0.00,VWS V14.01,2013-02-15 09:29:00,
2013-02-15 01:30:00,28.9,26.9,30.51,NE,41,0.0,0.0,92,0.00,,---,0.00,VWS V14.01,2013-02-15 09:30:00,
2013-02-15 01:34:00,29.3,27.5,30.51,NE,41,0.0,0.0,93,0.00,,---,0.00,VWS V14.01,2013-02-15 09:34:00,
2013-02-15 01:39:00,29.9,28.1,30.51,NE,41,0.0,0.0,93,0.00,,---,0.00,VWS V14.01,2013-02-15 09:39:00,
2013-02-15 01:44:00,29.9,28.1,30.50,NE,41,0.0,0.0,93,0.00,,---,0.00,VWS V14.01,2013-02-15 09:44:00,
2013-02-15 01:45:00,30.0,28.2,30.50,NE,41,0.0,0.0,93,0.00,,---,0.00,VWS V14.01,2013-02-15 09:45:00,
2013-02-15 01:49:00,29.9,28.1,30.51,NE,41,0.0,0.0,93,0.00,,---,0.00,VWS V14.01,2013-02-15 09:49:00,
2013-02-15 01:54:00,29.8,28.0,30.51,NE,41,0.0,0.0,93,0.00,,---,0.00,VWS V14.01,2013-02-15 09:54:00,
2013-02-15 01:59:00,29.8,28.0,30.51,NE,41,0.0,0.0,93,0.00,,---,0.00,VWS V14.01,2013-02-15 09:59:00,
2013-02-15 02:00:00,29.8,28.0,30.51,NE,41,0.0,0.0,93,0.00,,---,0.00,VWS V14.01,2013-02-15 10:00:00,
2013-02-15 02:04:00,29.8,28.0,30.50,NE,41,0.0,0.0,93,0.00,,---,0.00,VWS V14.01,2013-02-15 10:04:00,
2013-02-15 02:09:00,29.6,27.8,30.51,NE,41,0.0,0.0,93,0.00,,---,0.00,VWS V14.01,2013-02-15 10:09:00,
2013-02-15 02:14:00,29.1,27.1,30.51,NE,41,0.0,0.0,92,0.00,,---,0.00,VWS V14.01,2013-02-15 10:14:00,
2013-02-15 02:15:00,29.0,27.2,30.51,NE,42,0.0,1.0,93,0.00,,---,0.00,VWS V14.01,2013-02-15 10:15:00,
2013-02-15 02:19:00,29.7,27.9,30.51,East,82,4.0,6.0,93,0.00,,---,0.00,VWS V14.01,2013-02-15 10:19:00,
2013-02-15 02:24:00,30.0,28.2,30.51,East,82,0.0,6.0,93,0.00,,---,0.00,VWS V14.01,2013-02-15 10:24:00,
2013-02-15 02:29:00,29.8,28.0,30.51,East,82,0.0,6.0,93,0.00,,---,0.00,VWS V14.01,2013-02-15 10:29:00,
2013-02-15 02:30:00,29.8,28.0,30.51,East,82,0.0,6.0,93,0.00,,---,0.00,VWS V14.01,2013-02-15 10:30:00,
2013-02-15 02:34:00,29.7,27.9,30.51,East,82,0.0,0.0,93,0.00,,---,0.00,VWS V14.01,2013-02-15 10:34:00,
2013-02-15 02:39:00,29.7,27.9,30.51,East,82,0.0,0.0,93,0.00,,---,0.00,VWS V14.01,2013-02-15 10:39:00,
2013-02-15 02:44:00,28.8,26.8,30.51,NNW,341,0.0,5.0,92,0.00,,---,0.00,VWS V14.01,2013-02-15 10:44:00,
2013-02-15 02:45:00,28.5,26.5,30.51,NNW,341,0.0,5.0,92,0.00,,---,0.00,VWS V14.01,2013-02-15 10:45:00,
2013-02-15 02:49:00,28.1,26.1,30.51,NNW,334,2.0,3.0,92,0.00,,---,0.00,VWS V14.01,2013-02-15 10:49:00,
2013-02-15 02:54:00,27.8,26.0,30.51,NNW,333,0.0,3.0,93,0.00,,---,0.00,VWS V14.01,2013-02-15 10:54:00,
2013-02-15 02:59:00,27.8,26.0,30.51,NNW,334,0.0,3.0,93,0.00,,---,0.00,VWS V14.01,2013-02-15 10:59:00,
2013-02-15 03:00:00,27.8,26.0,30.51,NNW,334,0.0,3.0,93,0.00,,---,0.00,VWS V14.01,2013-02-15 11:00:00,
2013-02-15 03:04:00,27.9,26.1,30.51,NNW,334,0.0,0.0,93,0.00,,---,0.00,VWS V14.01,2013-02-15 11:04:00,
2013-02-15 03:09:00,28.0,26.2,30.51,NNW,334,0.0,0.0,93,0.00,,---,0.00,VWS V14.01,2013-02-15 11:09:00,
2013-02-15 03:14:00,28.1,26.3,30.51,NNW,334,0.0,0.0,93,0.00,,---,0.00,VWS V14.01,2013-02-15 11:14:00,
2013-02-15 03:15:00,28.0,26.2,30.51,NNW,334,0.0,0.0,93,0.00,,---,0.00,VWS V14.01,2013-02-15 11:15:00,
2013-02-15 03:19:00,28.0,26.2,30.51,NNW,334,0.0,0.0,93,0.00,,---,0.00,VWS V14.01,2013-02-15 11:19:00,
2013-02-15 03:24:00,28.0,26.5,30.51,NNW,334,0.0,0.0,94,0.00,,---,0.00,VWS V14.01,2013-02-15 11:24:00,
2013-02-15 03:29:00,28.2,26.7,30.51,NNW,334,0.0,0.0,94,0.00,,---,0.00,VWS V14.01,2013-02-15 11:29:00,
2013-02-15 03:30:00,28.2,26.7,30.51,NNW,334,0.0,0.0,94,0.00,,---,0.00,VWS V14.01,2013-02-15 11:30:00,
2013-02-15 03:34:00,28.2,26.7,30.51,NNW,334,0.0,0.0,94,0.00,,---,0.00,VWS V14.01,2013-02-15 11:34:00,
2013-02-15 03:39:00,28.5,27.0,30.50,NNW,334,0.0,0.0,94,0.00,,---,0.00,VWS V14.01,2013-02-15 11:39:00,
2013-02-15 03:44:00,29.3,27.8,30.50,NNW,334,0.0,0.0,94,0.00,,---,0.00,VWS V14.01,2013-02-15 11:44:00,
2013-02-15 03:45:00,29.4,27.9,30.50,NNW,334,0.0,0.0,94,0.00,,---,0.00,VWS V14.01,2013-02-15 11:45:00,
2013-02-15 03:49:00,29.7,28.2,30.50,NNW,334,0.0,0.0,94,0.00,,---,0.00,VWS V14.01,2013-02-15 11:49:00,
2013-02-15 03:54:00,30.1,28.6,30.50,NNW,333,0.0,0.0,94,0.00,,---,0.00,VWS V14.01,2013-02-15 11:54:00,
2013-02-15 03:59:00,30.0,28.5,30.50,ENE,63,4.0,4.0,94,0.00,,---,0.00,VWS V14.01,2013-02-15 11:59:00,
2013-02-15 04:00:00,29.8,28.3,30.50,ENE,64,4.0,4.0,94,0.00,,---,0.00,VWS V14.01,2013-02-15 12:00:00,
2013-02-15 04:04:00,29.6,28.1,30.50,East,98,5.0,5.0,94,0.00,,---,0.00,VWS V14.01,2013-02-15 12:04:00,
2013-02-15 04:09:00,29.5,28.0,30.49,East,98,5.0,6.0,94,0.00,,---,0.00,VWS V14.01,2013-02-15 12:09:00,
2013-02-15 04:14:00,29.2,27.7,30.49,ENE,72,0.0,6.0,94,0.00,,---,0.00,VWS V14.01,2013-02-15 12:14:00,
2013-02-15 04:15:00,29.2,27.7,30.49,ENE,72,0.0,6.0,94,0.00,,---,0.00,VWS V14.01,2013-02-15 12:15:00,
2013-02-15 04:18:00,29.3,27.8,30.49,ENE,72,0.0,0.0,94,0.00,,---,0.00,VWS V14.01,2013-02-15 12:18:00,
2013-02-15 04:23:00,29.1,27.6,30.49,ENE,72,0.0,0.0,94,0.00,,---,0.00,VWS V14.01,2013-02-15 12:23:00,
2013-02-15 04:28:00,28.3,26.5,30.49,ENE,72,0.0,0.0,93,0.00,,---,0.00,VWS V14.01,2013-02-15 12:28:00,
2013-02-15 04:30:00,28.0,26.2,30.49,ENE,72,0.0,0.0,93,0.00,,---,0.00,VWS V14.01,2013-02-15 12:30:00,
2013-02-15 04:33:00,27.4,25.4,30.49,ENE,72,0.0,0.0,92,0.00,,---,0.00,VWS V14.01,2013-02-15 12:33:00,
2013-02-15 04:39:00,26.7,24.7,30.48,ENE,72,0.0,0.0,92,0.00,,---,0.00,VWS V14.01,2013-02-15 12:39:00,
2013-02-15 04:44:00,26.5,24.8,30.48,ENE,71,0.0,0.0,93,0.00,,---,0.00,VWS V14.01,2013-02-15 12:44:00,
2013-02-15 04:45:00,26.5,24.8,30.48,ENE,72,0.0,0.0,93,0.00,,---,0.00,VWS V14.01,2013-02-15 12:45:00,
2013-02-15 04:49:00,26.5,24.8,30.48,ENE,72,0.0,0.0,93,0.00,,---,0.00,VWS V14.01,2013-02-15 12:49:00,
2013-02-15 04:54:00,26.4,24.6,30.48,ENE,72,0.0,0.0,93,0.00,,---,0.00,VWS V14.01,2013-02-15 12:54:00,
2013-02-15 04:59:00,26.2,24.5,30.48,ENE,72,0.0,0.0,93,0.00,,---,0.00,VWS V14.01,2013-02-15 12:59:00,
2013-02-15 05:00:00,26.3,24.6,30.48,ENE,72,0.0,0.0,93,0.00,,---,0.00,VWS V14.01,2013-02-15 13:00:00,
2013-02-15 05:04:00,26.7,25.2,30.48,ENE,72,0.0,0.0,94,0.00,,---,0.00,VWS V14.01,2013-02-15 13:04:00,
2013-02-15 05:09:00,27.4,25.9,30.48,ENE,72,0.0,0.0,94,0.00,,---,0.00,VWS V14.01,2013-02-15 13:09:00,
2013-02-15 05:14:00,28.1,26.6,30.48,ENE,72,0.0,0.0,94,0.00,,---,0.00,VWS V14.01,2013-02-15 13:14:00,
2013-02-15 05:15:00,28.1,26.6,30.48,ENE,72,0.0,0.0,94,0.00,,---,0.00,VWS V14.01,2013-02-15 13:15:00,
2013-02-15 05:19:00,28.0,26.5,30.48,ENE,71,0.0,0.0,94,0.00,,---,0.00,VWS V14.01,2013-02-15 13:19:00,
2013-02-15 05:24:00,28.0,26.5,30.48,ENE,71,0.0,0.0,94,0.00,,---,0.00,VWS V14.01,2013-02-15 13:24:00,
2013-02-15 05:29:00,27.1,25.6,30.48,ENE,71,0.0,0.0,94,0.00,,---,0.00,VWS V14.01,2013-02-15 13:29:00,
2013-02-15 05:30:00,27.0,25.5,30.48,ENE,71,0.0,0.0,94,0.00,,---,0.00,VWS V14.01,2013-02-15 13:30:00,
2013-02-15 05:34:00,26.8,25.3,30.48,ENE,71,0.0,0.0,94,0.00,,---,0.00,VWS V14.01,2013-02-15 13:34:00,
2013-02-15 05:39:00,26.6,24.9,30.48,ENE,71,0.0,0.0,93,0.00,,---,0.00,VWS V14.01,2013-02-15 13:39:00,
2013-02-15 05:44:00,26.4,24.6,30.47,ENE,71,0.0,0.0,93,0.00,,---,0.00,VWS V14.01,2013-02-15 13:44:00,
2013-02-15 05:45:00,26.2,24.5,30.47,ENE,71,0.0,0.0,93,0.00,,---,0.00,VWS V14.01,2013-02-15 13:45:00,
2013-02-15 05:49:00,26.2,24.5,30.47,ENE,71,0.0,0.0,93,0.00,,---,0.00,VWS V14.01,2013-02-15 13:49:00,
2013-02-15 05:54:00,26.1,24.6,30.47,ENE,71,0.0,0.0,94,0.00,,---,0.00,VWS V14.01,2013-02-15 13:54:00,
2013-02-15 05:59:00,25.8,24.1,30.47,ENE,71,0.0,0.0,93,0.00,,---,0.00,VWS V14.01,2013-02-15 13:59:00,
2013-02-15 06:00:00,25.8,24.3,30.47,ENE,71,0.0,0.0,94,0.00,,---,0.00,VWS V14.01,2013-02-15 14:00:00,
2013-02-15 06:04:00,25.9,24.4,30.47,ENE,71,0.0,0.0,94,0.00,,---,0.00,VWS V14.01,2013-02-15 14:04:00,
2013-02-15 06:09:00,25.9,24.4,30.46,ENE,71,0.0,0.0,94,0.00,,---,0.00,VWS V14.01,2013-02-15 14:09:00,
2013-02-15 06:14:00,25.9,24.4,30.47,ENE,71,0.0,0.0,94,0.00,,---,0.00,VWS V14.01,2013-02-15 14:14:00,
2013-02-15 06:15:00,25.9,24.4,30.47,ENE,71,0.0,0.0,94,0.00,,---,0.00,VWS V14.01,2013-02-15 14:15:00,
2013-02-15 06:19:00,25.7,24.2,30.47,ENE,72,0.0,0.0,94,0.00,,---,0.00,VWS V14.01,2013-02-15 14:19:00,
2013-02-15 06:24:00,25.7,24.2,30.47,ENE,72,0.0,0.0,94,0.00,,---,0.00,VWS V14.01,2013-02-15 14:24:00,
2013-02-15 06:28:00,25.8,24.3,30.47,ENE,72,0.0,0.0,94,0.00,,---,0.00,VWS V14.01,2013-02-15 14:28:00,
2013-02-15 06:30:00,26.0,24.5,30.47,ENE,72,0.0,0.0,94,0.00,,---,0.00,VWS V14.01,2013-02-15 14:30:00,
2013-02-15 06:33:00,26.0,24.5,30.47,ENE,72,0.0,0.0,94,0.00,,---,0.00,VWS V14.01,2013-02-15 14:33:00,
2013-02-15 06:38:00,26.2,24.7,30.47,ENE,72,0.0,0.0,94,0.00,,---,0.00,VWS V14.01,2013-02-15 14:38:00,
2013-02-15 06:43:00,26.0,24.5,30.47,ENE,72,0.0,0.0,94,0.00,,---,0.00,VWS V14.01,2013-02-15 14:43:00,
2013-02-15 06:45:00,25.9,24.4,30.47,ENE,72,0.0,0.0,94,0.00,,---,0.00,VWS V14.01,2013-02-15 14:45:00,
2013-02-15 06:48:00,25.7,24.2,30.47,ENE,72,0.0,0.0,94,0.00,,---,0.00,VWS V14.01,2013-02-15 14:48:00,
2013-02-15 06:53:00,25.4,23.9,30.47,ENE,72,0.0,0.0,94,0.00,,---,0.00,VWS V14.01,2013-02-15 14:53:00,
2013-02-15 06:58:00,24.9,23.4,30.47,ENE,60,0.0,0.0,94,0.00,,---,0.00,VWS V14.01,2013-02-15 14:58:00,
2013-02-15 07:00:00,24.7,23.2,30.47,ENE,60,0.0,0.0,94,0.00,,---,0.00,VWS V14.01,2013-02-15 15:00:00,
2013-02-15 07:03:00,24.6,23.1,30.47,ENE,60,0.0,0.0,94,0.00,,---,0.00,VWS V14.01,2013-02-15 15:03:00,
2013-02-15 07:08:00,24.4,22.9,30.47,ENE,60,0.0,0.0,94,0.00,,---,0.00,VWS V14.01,2013-02-15 15:08:00,
2013-02-15 07:13:00,24.5,23.0,30.47,ENE,60,0.0,0.0,94,0.00,,---,0.00,VWS V14.01,2013-02-15 15:13:00,
2013-02-15 07:15:00,24.6,23.1,30.47,ENE,60,0.0,0.0,94,0.00,,---,0.00,VWS V14.01,2013-02-15 15:15:00,
2013-02-15 07:18:00,24.7,23.2,30.47,ENE,60,0.0,0.0,94,0.00,,---,0.00,VWS V14.01,2013-02-15 15:18:00,
2013-02-15 07:23:00,24.9,23.4,30.47,ENE,60,0.0,0.0,94,0.00,,---,0.00,VWS V14.01,2013-02-15 15:23:00,
2013-02-15 07:28:00,25.2,23.7,30.47,ENE,60,0.0,0.0,94,0.00,,---,0.00,VWS V14.01,2013-02-15 15:28:00,
2013-02-15 07:30:00,25.3,23.8,30.47,ENE,60,0.0,0.0,94,0.00,,---,0.00,VWS V14.01,2013-02-15 15:30:00,
2013-02-15 07:33:00,25.6,24.1,30.47,ENE,60,0.0,0.0,94,0.00,,---,0.00,VWS V14.01,2013-02-15 15:33:00,
2013-02-15 07:38:00,26.1,24.6,30.47,ENE,60,0.0,0.0,94,0.00,,---,0.00,VWS V14.01,2013-02-15 15:38:00,
2013-02-15 07:43:00,26.4,24.9,30.47,ENE,60,0.0,0.0,94,0.00,,---,0.00,VWS V14.01,2013-02-15 15:43:00,
2013-02-15 07:45:00,26.6,25.1,30.47,ENE,60,0.0,0.0,94,0.00,,---,0.00,VWS V14.01,2013-02-15 15:45:00,
2013-02-15 07:48:00,27.2,26.0,30.47,ENE,60,0.0,0.0,95,0.00,,---,0.00,VWS V14.01,2013-02-15 15:48:00,
2013-02-15 07:53:00,27.6,26.4,30.47,ENE,60,0.0,0.0,95,0.00,,---,0.00,VWS V14.01,2013-02-15 15:53:00,
2013-02-15 07:58:00,27.9,26.7,30.47,ENE,60,0.0,0.0,95,0.00,,---,0.00,VWS V14.01,2013-02-15 15:58:00,
2013-02-15 08:00:00,28.1,26.9,30.47,ENE,60,0.0,0.0,95,0.00,,---,0.00,VWS V14.01,2013-02-15 16:00:00,
2013-02-15 08:03:00,28.4,27.1,30.47,ENE,60,0.0,0.0,95,0.00,,---,0.00,VWS V14.01,2013-02-15 16:03:00,
2013-02-15 08:08:00,29.0,27.8,30.47,ENE,60,0.0,0.0,95,0.00,,---,0.00,VWS V14.01,2013-02-15 16:08:00,
2013-02-15 08:13:00,29.6,28.4,30.47,ENE,60,0.0,0.0,95,0.00,,---,0.00,VWS V14.01,2013-02-15 16:13:00,
2013-02-15 08:15:00,29.7,28.5,30.47,ENE,60,0.0,0.0,95,0.00,,---,0.00,VWS V14.01,2013-02-15 16:15:00,
2013-02-15 08:18:00,29.8,28.5,30.47,ENE,60,0.0,0.0,95,0.00,,---,0.00,VWS V14.01,2013-02-15 16:18:00,
2013-02-15 08:23:00,29.9,28.6,30.47,ENE,60,0.0,0.0,95,0.00,,---,0.00,VWS V14.01,2013-02-15 16:23:00,
2013-02-15 08:28:00,30.0,28.7,30.47,ENE,60,0.0,0.0,95,0.00,,---,0.00,VWS V14.01,2013-02-15 16:28:00,
2013-02-15 08:30:00,29.9,28.6,30.47,ENE,60,0.0,0.0,95,0.00,,---,0.00,VWS V14.01,2013-02-15 16:30:00,
2013-02-15 08:33:00,30.1,28.8,30.47,ENE,60,0.0,0.0,95,0.00,,---,0.00,VWS V14.01,2013-02-15 16:33:00,
2013-02-15 08:38:00,30.5,29.2,30.47,ENE,60,0.0,0.0,95,0.00,,---,0.00,VWS V14.01,2013-02-15 16:38:00,
2013-02-15 08:43:00,31.0,29.7,30.47,ENE,60,0.0,0.0,95,0.00,,---,0.00,VWS V14.01,2013-02-15 16:43:00,
2013-02-15 08:45:00,31.1,29.8,30.47,ENE,60,0.0,0.0,95,0.00,,---,0.00,VWS V14.01,2013-02-15 16:45:00,
2013-02-15 08:48:00,31.4,30.1,30.47,ENE,60,0.0,0.0,95,0.00,,---,0.00,VWS V14.01,2013-02-15 16:48:00,
2013-02-15 08:53:00,31.9,30.6,30.47,ENE,60,0.0,0.0,95,0.00,,---,0.00,VWS V14.01,2013-02-15 16:53:00,
2013-02-15 08:58:00,32.6,31.3,30.46,ENE,60,0.0,0.0,95,0.00,,---,0.00,VWS V14.01,2013-02-15 16:58:00,
2013-02-15 09:00:00,32.9,31.6,30.46,ENE,60,0.0,0.0,95,0.00,,---,0.00,VWS V14.01,2013-02-15 17:00:00,
2013-02-15 09:03:00,33.2,31.9,30.46,ENE,60,0.0,0.0,95,0.00,,---,0.00,VWS V14.01,2013-02-15 17:03:00,
2013-02-15 09:08:00,33.5,32.0,30.46,ENE,60,0.0,0.0,94,0.00,,---,0.00,VWS V14.01,2013-02-15 17:08:00,
2013-02-15 09:13:00,34.2,32.7,30.46,ENE,60,0.0,0.0,94,0.00,,---,0.00,VWS V14.01,2013-02-15 17:13:00,
2013-02-15 09:15:00,34.4,32.9,30.46,ENE,60,0.0,0.0,94,0.00,,---,0.00,VWS V14.01,2013-02-15 17:15:00,
2013-02-15 09:18:00,35.3,33.8,30.46,ENE,60,0.0,0.0,94,0.00,,---,0.00,VWS V14.01,2013-02-15 17:18:00,
2013-02-15 09:23:00,36.8,35.2,30.46,ENE,60,0.0,0.0,94,0.00,,---,0.00,VWS V14.01,2013-02-15 17:23:00,
2013-02-15 09:28:00,37.3,35.2,30.46,ENE,60,0.0,0.0,92,0.00,,---,0.00,VWS V14.01,2013-02-15 17:28:00,
2013-02-15 09:30:00,37.5,35.4,30.46,ENE,60,0.0,0.0,92,0.00,,---,0.00,VWS V14.01,2013-02-15 17:30:00,
2013-02-15 09:33:00,37.8,35.4,30.45,ENE,60,0.0,0.0,91,0.00,,---,0.00,VWS V14.01,2013-02-15 17:33:00,
2013-02-15 09:38:00,38.5,36.1,30.45,ENE,60,0.0,0.0,91,0.00,,---,0.00,VWS V14.01,2013-02-15 17:38:00,
2013-02-15 09:43:00,39.4,36.7,30.45,ENE,60,0.0,0.0,90,0.00,,---,0.00,VWS V14.01,2013-02-15 17:43:00,
2013-02-15 09:45:00,39.8,36.8,30.45,ENE,60,0.0,0.0,89,0.00,,---,0.00,VWS V14.01,2013-02-15 17:45:00,
2013-02-15 09:48:00,40.3,37.0,30.45,ENE,60,0.0,0.0,88,0.00,,---,0.00,VWS V14.01,2013-02-15 17:48:00,
2013-02-15 09:53:00,40.9,36.8,30.45,ENE,60,0.0,0.0,85,0.00,,---,0.00,VWS V14.01,2013-02-15 17:53:00,
2013-02-15 10:00:00,41.5,37.0,30.44,North,0,0.0,0.0,84,0.00,,---,0.00,VWS V14.01,2013-02-15 18:00:00,
2013-02-15 10:15:00,49.8,37.3,30.42,NE,55,4.0,10.0,62,0.00,,---,0.00,VWS V14.01,2013-02-15 18:15:00,
2013-02-15 10:22:00,41.5,37.0,30.44,North,0,0.0,0.0,84,0.00,,---,0.00,VWS V14.01,2013-02-15 18:22:00,
2013-02-15 10:27:00,45.5,39.0,30.44,ENE,60,0.0,0.0,78,0.00,,---,0.00,VWS V14.01,2013-02-15 18:27:00,
2013-02-15 10:30:00,50.4,37.0,30.41,NE,46,6.0,10.0,60,0.00,,---,0.00,VWS V14.01,2013-02-15 18:30:00,
2013-02-15 10:32:00,45.9,38.4,30.44,ENE,60,0.0,0.0,75,0.00,,---,0.00,VWS V14.01,2013-02-15 18:32:00,
2013-02-15 10:37:00,45.9,38.4,30.43,SSE,167,2.0,4.0,75,0.00,,---,0.00,VWS V14.01,2013-02-15 18:37:00,
2013-02-15 10:41:00,45.3,37.9,30.43,South,171,1.0,4.0,75,0.00,,---,0.00,VWS V14.01,2013-02-15 18:41:00,
2013-02-15 10:45:00,51.5,37.2,30.40,ENE,78,7.0,11.0,58,0.00,,---,0.00,VWS V14.01,2013-02-15 18:45:00,
2013-02-15 10:46:00,45.1,38.0,30.43,South,171,0.0,0.0,76,0.00,,---,0.00,VWS V14.01,2013-02-15 18:46:00,
2013-02-15 10:51:00,45.7,38.6,30.42,South,171,0.0,1.0,76,0.00,,---,0.00,VWS V14.01,2013-02-15 18:51:00,
2013-02-15 10:56:00,47.0,38.8,30.42,East,90,0.0,2.0,73,0.00,,---,0.00,VWS V14.01,2013-02-15 18:56:00,
2013-02-15 11:00:00,52.2,37.4,30.39,NE,54,8.0,13.0,57,0.00,,---,0.00,VWS V14.01,2013-02-15 19:00:00,
2013-02-15 11:01:00,48.8,37.2,30.42,ENE,74,7.0,8.0,64,0.00,,---,0.00,VWS V14.01,2013-02-15 19:01:00,
2013-02-15 11:06:00,49.3,37.2,30.42,ENE,61,6.0,8.0,63,0.00,,---,0.00,VWS V14.01,2013-02-15 19:06:00,
2013-02-15 11:11:00,49.6,36.7,30.42,East,86,7.0,8.0,61,0.00,,---,0.00,VWS V14.01,2013-02-15 19:11:00,
2013-02-15 11:15:00,52.9,36.7,30.37,East,90,8.0,15.0,54,0.00,,---,0.00,VWS V14.01,2013-02-15 19:15:00,
2013-02-15 11:16:00,50.0,36.7,30.42,NE,53,7.0,8.0,60,0.00,,---,0.00,VWS V14.01,2013-02-15 19:16:00,
2013-02-15 11:21:00,50.3,37.0,30.41,ENE,57,6.0,10.0,60,0.00,,---,0.00,VWS V14.01,2013-02-15 19:21:00,
2013-02-15 11:26:00,50.3,36.1,30.41,ENE,59,4.0,10.0,58,0.00,,---,0.00,VWS V14.01,2013-02-15 19:26:00,
2013-02-15 11:30:00,53.1,36.9,30.36,NE,56,6.0,18.0,54,0.00,,---,0.00,VWS V14.01,2013-02-15 19:30:00,
2013-02-15 11:31:00,50.4,36.6,30.40,ENE,59,4.0,6.0,59,0.00,,---,0.00,VWS V14.01,2013-02-15 19:31:00,
2013-02-15 11:36:00,50.8,36.6,30.40,NE,55,6.0,11.0,58,0.00,,---,0.00,VWS V14.01,2013-02-15 19:36:00,
2013-02-15 11:41:00,51.3,37.5,30.40,ENE,57,8.0,11.0,59,0.00,,---,0.00,VWS V14.01,2013-02-15 19:41:00,
2013-02-15 11:45:00,53.6,36.4,30.36,ENE,74,6.0,14.0,52,0.00,,---,0.00,VWS V14.01,2013-02-15 19:45:00,
2013-02-15 11:46:00,51.4,36.7,30.40,NE,47,6.0,8.0,57,0.00,,---,0.00,VWS V14.01,2013-02-15 19:46:00,
2013-02-15 11:51:00,51.7,37.8,30.39,NE,53,6.0,12.0,59,0.00,,---,0.00,VWS V14.01,2013-02-15 19:51:00,
2013-02-15 11:56:00,51.9,38.0,30.39,NE,53,10.0,12.0,59,0.00,,---,0.00,VWS V14.01,2013-02-15 19:56:00,
2013-02-15 12:00:00,54.1,36.9,30.35,ENE,58,4.0,13.0,52,0.00,,---,0.00,VWS V14.01,2013-02-15 20:00:00,
2013-02-15 12:01:00,52.2,37.0,30.39,ENE,67,5.0,8.0,56,0.00,,---,0.00,VWS V14.01,2013-02-15 20:01:00,
2013-02-15 12:06:00,52.7,37.0,30.38,NE,48,8.0,13.0,55,0.00,,---,0.00,VWS V14.01,2013-02-15 20:06:00,
2013-02-15 12:11:00,53.0,37.7,30.38,ENE,74,11.0,13.0,56,0.00,,---,0.00,VWS V14.01,2013-02-15 20:11:00,
2013-02-15 12:15:00,55.0,37.2,30.33,ENE,78,0.0,12.0,51,0.00,,---,0.00,VWS V14.01,2013-02-15 20:15:00,
2013-02-15 12:16:00,53.1,38.7,30.37,ENE,67,8.0,12.0,58,0.00,,---,0.00,VWS V14.01,2013-02-15 20:16:00,
2013-02-15 12:21:00,53.3,37.6,30.37,ENE,74,10.0,13.0,55,0.00,,---,0.00,VWS V14.01,2013-02-15 20:21:00,
2013-02-15 12:26:00,53.2,36.5,30.37,East,90,8.0,18.0,53,0.00,,---,0.00,VWS V14.01,2013-02-15 20:26:00,
2013-02-15 12:30:00,55.4,38.1,30.32,NE,56,8.0,10.0,52,0.00,,---,0.00,VWS V14.01,2013-02-15 20:30:00,
2013-02-15 12:31:00,53.2,36.5,30.36,ENE,61,8.0,12.0,53,0.00,,---,0.00,VWS V14.01,2013-02-15 20:31:00,
2013-02-15 12:36:00,53.5,37.8,30.36,ENE,61,11.0,13.0,55,0.00,,---,0.00,VWS V14.01,2013-02-15 20:36:00,
2013-02-15 12:41:00,53.5,37.8,30.36,NE,56,10.0,13.0,55,0.00,,---,0.00,VWS V14.01,2013-02-15 20:41:00,
2013-02-15 12:45:00,55.8,38.9,30.32,East,80,5.0,12.0,53,0.00,,---,0.00,VWS V14.01,2013-02-15 20:45:00,
2013-02-15 12:46:00,53.7,37.9,30.35,ENE,57,13.0,13.0,55,0.00,,---,0.00,VWS V14.01,2013-02-15 20:46:00,
2013-02-15 12:51:00,54.0,37.8,30.35,ENE,70,6.0,13.0,54,0.00,,---,0.00,VWS V14.01,2013-02-15 20:51:00,
2013-02-15 12:56:00,54.1,36.4,30.35,NE,42,3.0,13.0,51,0.00,,---,0.00,VWS V14.01,2013-02-15 20:56:00,
2013-02-15 13:00:00,56.4,37.5,30.31,ESE,110,9.0,14.0,49,0.00,,---,0.00,VWS V14.01,2013-02-15 21:00:00,
2013-02-15 13:01:00,54.2,37.5,30.35,East,90,12.0,12.0,53,0.00,,---,0.00,VWS V14.01,2013-02-15 21:01:00,
2013-02-15 13:06:00,54.5,37.2,30.34,East,85,5.0,12.0,52,0.00,,---,0.00,VWS V14.01,2013-02-15 21:06:00,
2013-02-15 13:11:00,55.0,37.2,30.34,NE,54,0.0,12.0,51,0.00,,---,0.00,VWS V14.01,2013-02-15 21:11:00,
2013-02-15 13:15:00,56.6,38.2,30.30,East,92,16.0,18.0,50,0.00,,---,0.00,VWS V14.01,2013-02-15 21:15:00,
2013-02-15 13:16:00,55.1,37.3,30.33,ENE,78,0.0,0.0,51,0.00,,---,0.00,VWS V14.01,2013-02-15 21:16:00,
2013-02-15 13:21:00,55.3,37.0,30.33,ENE,59,7.0,8.0,50,0.00,,---,0.00,VWS V14.01,2013-02-15 21:21:00,
2013-02-15 13:26:00,55.2,37.9,30.33,NE,37,5.0,8.0,52,0.00,,---,0.00,VWS V14.01,2013-02-15 21:26:00,
2013-02-15 13:30:00,56.9,37.4,30.30,NE,55,8.0,18.0,48,0.00,,---,0.00,VWS V14.01,2013-02-15 21:30:00,
2013-02-15 13:31:00,55.4,37.1,30.32,ENE,62,7.0,11.0,50,0.00,,---,0.00,VWS V14.01,2013-02-15 21:31:00,
2013-02-15 13:36:00,55.6,37.8,30.32,East,83,10.0,12.0,51,0.00,,---,0.00,VWS V14.01,2013-02-15 21:36:00,
2013-02-15 13:41:00,55.8,37.5,30.32,NE,46,7.0,12.0,50,0.00,,---,0.00,VWS V14.01,2013-02-15 21:41:00,
2013-02-15 13:45:00,56.7,36.7,30.29,East,79,8.0,17.0,47,0.00,,---,0.00,VWS V14.01,2013-02-15 21:45:00,
2013-02-15 13:46:00,55.9,38.0,30.31,East,94,12.0,13.0,51,0.00,,---,0.00,VWS V14.01,2013-02-15 21:46:00,
2013-02-15 13:51:00,56.3,38.4,30.31,ESE,102,11.0,13.0,51,0.00,,---,0.00,VWS V14.01,2013-02-15 21:51:00,
2013-02-15 13:56:00,56.5,36.5,30.31,ESE,109,6.0,13.0,47,0.00,,---,0.00,VWS V14.01,2013-02-15 21:56:00,
2013-02-15 14:00:00,57.0,39.1,30.29,ENE,67,14.0,18.0,51,0.00,,---,0.00,VWS V14.01,2013-02-15 22:00:00,
2013-02-15 14:01:00,56.4,37.0,30.31,East,101,11.0,11.0,48,0.00,,---,0.00,VWS V14.01,2013-02-15 22:01:00,
2013-02-15 14:06:00,56.5,37.1,30.30,East,94,11.0,14.0,48,0.00,,---,0.00,VWS V14.01,2013-02-15 22:06:00,
2013-02-15 14:11:00,56.4,36.4,30.30,ESE,103,6.0,17.0,47,0.00,,---,0.00,VWS V14.01,2013-02-15 22:11:00,
2013-02-15 14:15:00,56.9,36.9,30.28,East,81,10.0,17.0,47,0.00,,---,0.00,VWS V14.01,2013-02-15 22:15:00,
2013-02-15 14:16:00,56.5,37.1,30.30,ESE,108,9.0,16.0,48,0.00,,---,0.00,VWS V14.01,2013-02-15 22:16:00,
2013-02-15 14:21:00,56.5,37.1,30.30,ENE,75,5.0,18.0,48,0.00,,---,0.00,VWS V14.01,2013-02-15 22:21:00,
2013-02-15 14:26:00,56.9,38.0,30.30,ENE,74,10.0,18.0,49,0.00,,---,0.00,VWS V14.01,2013-02-15 22:26:00,
2013-02-15 14:30:00,57.0,37.0,30.28,East,88,11.0,15.0,47,0.00,,---,0.00,VWS V14.01,2013-02-15 22:30:00,
2013-02-15 14:31:00,56.9,38.0,30.30,ENE,62,11.0,12.0,49,0.00,,---,0.00,VWS V14.01,2013-02-15 22:31:00,
2013-02-15 14:36:00,56.8,37.3,30.30,ENE,70,12.0,14.0,48,0.00,,---,0.00,VWS V14.01,2013-02-15 22:36:00,
2013-02-15 14:41:00,56.9,36.3,30.29,East,89,13.0,14.0,46,0.00,,---,0.00,VWS V14.01,2013-02-15 22:41:00,
2013-02-15 14:45:00,57.0,38.0,30.28,NE,55,4.0,14.0,49,0.00,,---,0.00,VWS V14.01,2013-02-15 22:45:00,
2013-02-15 14:46:00,56.7,37.2,30.29,East,96,12.0,14.0,48,0.00,,---,0.00,VWS V14.01,2013-02-15 22:46:00,
2013-02-15 14:51:00,56.7,36.7,30.29,ENE,71,11.0,18.0,47,0.00,,---,0.00,VWS V14.01,2013-02-15 22:51:00,
2013-02-15 14:56:00,56.6,36.1,30.29,East,88,6.0,18.0,46,0.00,,---,0.00,VWS V14.01,2013-02-15 22:56:00,
2013-02-15 15:00:00,56.7,38.3,30.27,ENE,63,8.0,13.0,50,0.00,,---,0.00,VWS V14.01,2013-02-15 23:00:00,
2013-02-15 15:01:00,57.0,39.1,30.29,ENE,66,11.0,14.0,51,0.00,,---,0.00,VWS V14.01,2013-02-15 23:01:00,
2013-02-15 15:06:00,56.9,36.9,30.29,East,82,5.0,17.0,47,0.00,,---,0.00,VWS V14.01,2013-02-15 23:06:00,
2013-02-15 15:11:00,56.9,36.9,30.28,ENE,60,4.0,17.0,47,0.00,,---,0.00,VWS V14.01,2013-02-15 23:11:00,
2013-02-15 15:15:00,56.6,37.7,30.27,NE,56,6.0,12.0,49,0.00,,---,0.00,VWS V14.01,2013-02-15 23:15:00,
2013-02-15 15:16:00,57.0,37.5,30.28,ENE,70,11.0,12.0,48,0.00,,---,0.00,VWS V14.01,2013-02-15 23:16:00,
2013-02-15 15:21:00,56.8,37.3,30.28,East,80,12.0,15.0,48,0.00,,---,0.00,VWS V14.01,2013-02-15 23:21:00,
2013-02-15 15:26:00,56.8,37.9,30.28,East,90,8.0,15.0,49,0.00,,---,0.00,VWS V14.01,2013-02-15 23:26:00,
2013-02-15 15:30:00,55.9,38.5,30.26,ENE,57,5.0,10.0,52,0.00,,---,0.00,VWS V14.01,2013-02-15 23:30:00,
2013-02-15 15:31:00,57.0,37.0,30.28,ENE,71,12.0,13.0,47,0.00,,---,0.00,VWS V14.01,2013-02-15 23:31:00,
2013-02-15 15:36:00,56.9,38.0,30.28,ENE,59,3.0,14.0,49,0.00,,---,0.00,VWS V14.01,2013-02-15 23:36:00,
2013-02-15 15:41:00,56.9,36.9,30.28,ENE,63,7.0,14.0,47,0.00,,---,0.00,VWS V14.01,2013-02-15 23:41:00,
2013-02-15 15:45:00,54.8,38.0,30.25,NE,53,8.0,12.0,53,0.00,,---,0.00,VWS V14.01,2013-02-15 23:45:00,
2013-02-15 15:46:00,57.1,37.6,30.27,ENE,65,6.0,6.0,48,0.00,,---,0.00,VWS V14.01,2013-02-15 23:46:00,
2013-02-15 15:51:00,56.8,37.3,30.27,NE,51,8.0,13.0,48,0.00,,---,0.00,VWS V14.01,2013-02-15 23:51:00,
2013-02-15 15:56:00,56.7,38.8,30.27,NE,53,8.0,13.0,51,0.00,,---,0.00,VWS V14.01,2013-02-15 23:56:00,
2013-02-15 16:00:00,53.9,37.2,30.25,NE,50,8.0,11.0,53,0.00,,---,0.00,VWS V14.01,2013-02-16 00:00:00,
2013-02-15 16:01:00,56.7,37.2,30.27,ENE,65,10.0,10.0,48,0.00,,---,0.00,VWS V14.01,2013-02-16 00:01:00,
2013-02-15 16:06:00,56.8,37.3,30.27,ENE,67,8.0,11.0,48,0.00,,---,0.00,VWS V14.01,2013-02-16 00:06:00,
2013-02-15 16:10:00,56.7,38.3,30.27,NE,49,8.0,11.0,50,0.00,,---,0.00,VWS V14.01,2013-02-16 00:10:00,
2013-02-15 16:15:00,56.6,37.7,30.26,NE,55,6.0,7.0,49,0.00,,---,0.00,VWS V14.01,2013-02-16 00:15:00,
2013-02-15 16:20:00,56.5,37.1,30.26,ENE,60,6.0,10.0,48,0.00,,---,0.00,VWS V14.01,2013-02-16 00:20:00,
2013-02-15 16:25:00,56.2,38.8,30.26,NE,53,5.0,10.0,52,0.00,,---,0.00,VWS V14.01,2013-02-16 00:25:00,
2013-02-15 16:30:00,55.8,38.0,30.26,NE,46,6.0,6.0,51,0.00,,---,0.00,VWS V14.01,2013-02-16 00:30:00,
2013-02-15 16:35:00,55.3,38.5,30.26,NE,53,8.0,10.0,53,0.00,,---,0.00,VWS V14.01,2013-02-16 00:35:00,
2013-02-15 16:40:00,55.0,38.2,30.26,NE,56,8.0,12.0,53,0.00,,---,0.00,VWS V14.01,2013-02-16 00:40:00,
2013-02-15 16:45:00,54.8,38.0,30.25,NE,53,7.0,8.0,53,0.00,,---,0.00,VWS V14.01,2013-02-16 00:45:00,
2013-02-15 16:50:00,54.4,37.6,30.25,NE,53,7.0,10.0,53,0.00,,---,0.00,VWS V14.01,2013-02-16 00:50:00,
2013-02-15 16:55:00,54.2,37.5,30.25,NE,50,5.0,11.0,53,0.00,,---,0.00,VWS V14.01,2013-02-16 00:55:00,
2013-02-15 17:00:00,54.0,37.3,30.25,NE,49,7.0,8.0,53,0.00,,---,0.00,VWS V14.01,2013-02-16 01:00:00,
2013-02-15 17:05:00,53.7,37.0,30.25,NE,44,8.0,11.0,53,0.00,,---,0.00,VWS V14.01,2013-02-16 01:05:00,
2013-02-15 17:10:00,53.7,36.5,30.25,NE,56,7.0,11.0,52,0.00,,---,0.00,VWS V14.01,2013-02-16 01:10:00,
2013-02-15 17:15:00,53.3,36.6,30.25,NE,55,10.0,11.0,53,0.00,,---,0.00,VWS V14.01,2013-02-16 01:15:00,
2013-02-15 17:20:00,53.0,36.3,30.24,NE,53,6.0,11.0,53,0.00,,---,0.00,VWS V14.01,2013-02-16 01:20:00,
2013-02-15 17:25:00,52.6,36.5,30.24,NE,53,10.0,11.0,54,0.00,,---,0.00,VWS V14.01,2013-02-16 01:25:00,
2013-02-15 17:30:00,52.3,36.6,30.25,ENE,57,6.0,7.0,55,0.00,,---,0.00,VWS V14.01,2013-02-16 01:30:00,
2013-02-15 17:35:00,51.8,36.2,30.25,NE,48,6.0,8.0,55,0.00,,---,0.00,VWS V14.01,2013-02-16 01:35:00,
2013-02-15 17:40:00,51.5,35.9,30.25,NE,54,6.0,8.0,55,0.00,,---,0.00,VWS V14.01,2013-02-16 01:40:00,
2013-02-15 17:45:00,50.8,35.7,30.25,NE,36,5.0,5.0,56,0.00,,---,0.00,VWS V14.01,2013-02-16 01:45:00,
2013-02-15 17:50:00,50.8,35.7,30.25,NNE,25,3.0,5.0,56,0.00,,---,0.00,VWS V14.01,2013-02-16 01:50:00,
2013-02-15 17:55:00,50.4,35.3,30.25,NNE,21,4.0,5.0,56,0.00,,---,0.00,VWS V14.01,2013-02-16 01:55:00,
2013-02-15 18:00:00,49.7,35.1,30.25,NNE,24,4.0,6.0,57,0.00,,---,0.00,VWS V14.01,2013-02-16 02:00:00,
2013-02-15 18:05:00,48.8,35.1,30.25,NNE,24,4.0,6.0,59,0.00,,---,0.00,VWS V14.01,2013-02-16 02:05:00,
2013-02-15 18:10:00,47.6,34.8,30.25,NNE,21,5.0,6.0,61,0.00,,---,0.00,VWS V14.01,2013-02-16 02:10:00,
2013-02-15 18:15:00,46.8,34.5,30.25,NNE,26,5.0,6.0,62,0.00,,---,0.00,VWS V14.01,2013-02-16 02:15:00,
2013-02-15 18:20:00,47.5,34.7,30.25,NNE,29,5.0,7.0,61,0.00,,---,0.00,VWS V14.01,2013-02-16 02:20:00,
2013-02-15 18:25:00,47.0,34.7,30.25,NNE,32,6.0,7.0,62,0.00,,---,0.00,VWS V14.01,2013-02-16 02:25:00,
2013-02-15 18:30:00,47.3,34.5,30.25,NE,38,5.0,5.0,61,0.00,,---,0.00,VWS V14.01,2013-02-16 02:30:00,
2013-02-15 18:35:00,48.2,34.6,30.26,NE,38,4.0,5.0,59,0.00,,---,0.00,VWS V14.01,2013-02-16 02:35:00,
2013-02-15 18:40:00,47.9,34.3,30.25,NNE,33,4.0,5.0,59,0.00,,---,0.00,VWS V14.01,2013-02-16 02:40:00,
2013-02-15 18:45:00,47.2,33.6,30.25,NNE,29,4.0,5.0,59,0.00,,---,0.00,VWS V14.01,2013-02-16 02:45:00,
2013-02-15 18:50:00,46.2,33.5,30.25,NNE,28,5.0,6.0,61,0.00,,---,0.00,VWS V14.01,2013-02-16 02:50:00,
2013-02-15 18:55:00,45.8,33.5,30.25,NNE,23,4.0,6.0,62,0.00,,---,0.00,VWS V14.01,2013-02-16 02:55:00,
2013-02-15 19:00:00,46.0,33.3,30.25,NNE,24,4.0,4.0,61,0.00,,---,0.00,VWS V14.01,2013-02-16 03:00:00,
2013-02-15 19:05:00,46.4,33.7,30.25,NNE,23,5.0,5.0,61,0.00,,---,0.00,VWS V14.01,2013-02-16 03:05:00,
2013-02-15 19:10:00,46.1,33.4,30.25,NNE,25,4.0,5.0,61,0.00,,---,0.00,VWS V14.01,2013-02-16 03:10:00,
2013-02-15 19:15:00,46.3,33.6,30.25,NNE,25,0.0,0.0,61,0.00,,---,0.00,VWS V14.01,2013-02-16 03:15:00,
2013-02-15 19:20:00,44.8,33.0,30.25,NNE,25,0.0,0.0,63,0.00,,---,0.00,VWS V14.01,2013-02-16 03:20:00,
2013-02-15 19:25:00,43.8,32.8,30.25,NNE,25,0.0,0.0,65,0.00,,---,0.00,VWS V14.01,2013-02-16 03:25:00,
2013-02-15 19:30:00,43.4,32.8,30.25,NNE,25,0.0,0.0,66,0.00,,---,0.00,VWS V14.01,2013-02-16 03:30:00,
2013-02-15 19:35:00,43.1,32.9,30.25,NNE,25,0.0,0.0,67,0.00,,---,0.00,VWS V14.01,2013-02-16 03:35:00,
2013-02-15 19:40:00,42.9,32.7,30.25,NNE,25,0.0,0.0,67,0.00,,---,0.00,VWS V14.01,2013-02-16 03:40:00,
2013-02-15 19:45:00,42.4,32.2,30.25,NNE,25,0.0,0.0,67,0.00,,---,0.00,VWS V14.01,2013-02-16 03:45:00,
2013-02-15 19:50:00,41.6,32.2,30.25,NNE,25,0.0,0.0,69,0.00,,---,0.00,VWS V14.01,2013-02-16 03:50:00,
2013-02-15 19:55:00,41.0,32.3,30.25,NNE,25,0.0,0.0,71,0.00,,---,0.00,VWS V14.01,2013-02-16 03:55:00,
2013-02-15 20:00:00,41.0,32.3,30.25,NNE,25,0.0,0.0,71,0.00,,---,0.00,VWS V14.01,2013-02-16 04:00:00,
2013-02-15 20:05:00,41.1,32.4,30.25,NNE,25,0.0,0.0,71,0.00,,---,0.00,VWS V14.01,2013-02-16 04:05:00,
2013-02-15 20:10:00,40.8,32.1,30.25,NNE,25,0.0,0.0,71,0.00,,---,0.00,VWS V14.01,2013-02-16 04:10:00,
2013-02-15 20:15:00,40.4,31.8,30.25,NNE,25,0.0,0.0,71,0.00,,---,0.00,VWS V14.01,2013-02-16 04:15:00,
2013-02-15 20:20:00,39.9,31.6,30.26,NNE,25,0.0,0.0,72,0.00,,---,0.00,VWS V14.01,2013-02-16 04:20:00,
2013-02-15 20:25:00,39.6,31.7,30.26,NNE,25,0.0,0.0,73,0.00,,---,0.00,VWS V14.01,2013-02-16 04:25:00,
2013-02-15 20:30:00,39.5,31.9,30.26,NNE,25,0.0,0.0,74,0.00,,---,0.00,VWS V14.01,2013-02-16 04:30:00,
2013-02-15 20:35:00,39.6,32.0,30.26,NNE,25,0.0,0.0,74,0.00,,---,0.00,VWS V14.01,2013-02-16 04:35:00,
2013-02-15 20:40:00,39.6,31.7,30.26,NNE,25,0.0,0.0,73,0.00,,---,0.00,VWS V14.01,2013-02-16 04:40:00,
2013-02-15 20:45:00,39.4,31.8,30.26,NNE,25,0.0,0.0,74,0.00,,---,0.00,VWS V14.01,2013-02-16 04:45:00,
2013-02-15 20:50:00,39.8,32.2,30.26,NNE,25,0.0,0.0,74,0.00,,---,0.00,VWS V14.01,2013-02-16 04:50:00,
2013-02-15 20:55:00,40.4,32.4,30.26,NNE,25,2.0,3.0,73,0.00,,---,0.00,VWS V14.01,2013-02-16 04:55:00,
2013-02-15 21:00:00,41.0,32.7,30.26,NNE,25,0.0,3.0,72,0.00,,---,0.00,VWS V14.01,2013-02-16 05:00:00,
2013-02-15 21:05:00,40.7,32.0,30.26,NNE,25,0.0,0.0,71,0.00,,---,0.00,VWS V14.01,2013-02-16 05:05:00,
2013-02-15 21:10:00,39.4,31.1,30.26,NNE,25,0.0,0.0,72,0.00,,---,0.00,VWS V14.01,2013-02-16 05:10:00,
2013-02-15 21:15:00,37.7,30.5,30.26,NNE,25,0.0,0.0,75,0.00,,---,0.00,VWS V14.01,2013-02-16 05:15:00,
2013-02-15 21:20:00,36.8,30.3,30.26,NNE,25,0.0,0.0,77,0.00,,---,0.00,VWS V14.01,2013-02-16 05:20:00,
2013-02-15 21:23:00,36.6,30.4,30.26,NNE,25,0.0,0.0,78,0.00,,---,0.00,VWS V14.01,2013-02-16 05:23:00,
2013-02-15 21:28:00,36.5,30.3,30.26,NNE,25,0.0,0.0,78,0.00,,---,0.00,VWS V14.01,2013-02-16 05:28:00,
2013-02-15 21:30:00,35.6,30.0,30.26,NE,44,0.0,4.0,80,0.00,,---,0.00,VWS V14.01,2013-02-16 05:30:00,
2013-02-15 21:33:00,35.9,30.0,30.26,NNE,25,0.0,0.0,79,0.00,,---,0.00,VWS V14.01,2013-02-16 05:33:00,
2013-02-15 21:38:00,35.6,30.0,30.26,NNE,25,0.0,0.0,80,0.00,,---,0.00,VWS V14.01,2013-02-16 05:38:00,
2013-02-15 21:43:00,35.4,29.9,30.27,NNE,25,0.0,0.0,80,0.00,,---,0.00,VWS V14.01,2013-02-16 05:43:00,
2013-02-15 21:45:00,33.5,29.5,30.26,NE,44,0.0,0.0,85,0.00,,---,0.00,VWS V14.01,2013-02-16 05:45:00,
2013-02-15 21:48:00,35.1,29.9,30.26,NNE,25,0.0,0.0,81,0.00,,---,0.00,VWS V14.01,2013-02-16 05:48:00,
2013-02-15 21:53:00,34.8,29.6,30.26,NNE,25,0.0,0.0,81,0.00,,---,0.00,VWS V14.01,2013-02-16 05:53:00,
2013-02-15 21:58:00,34.4,29.5,30.27,NNE,25,0.0,0.0,82,0.00,,---,0.00,VWS V14.01,2013-02-16 05:58:00,
2013-02-15 22:00:00,33.7,29.4,30.26,NE,44,0.0,3.0,84,0.00,,---,0.00,VWS V14.01,2013-02-16 06:00:00,
2013-02-15 22:03:00,34.3,29.1,30.27,NNE,25,0.0,0.0,81,0.00,,---,0.00,VWS V14.01,2013-02-16 06:03:00,
2013-02-15 22:08:00,33.6,28.7,30.26,NNE,25,0.0,0.0,82,0.00,,---,0.00,VWS V14.01,2013-02-16 06:08:00,
2013-02-15 22:12:00,33.5,29.2,30.26,NNE,25,0.0,0.0,84,0.00,,---,0.00,VWS V14.01,2013-02-16 06:12:00,
2013-02-15 22:15:00,32.2,28.2,30.26,NE,44,0.0,0.0,85,0.00,,---,0.00,VWS V14.01,2013-02-16 06:15:00,
2013-02-15 22:17:00,35.0,30.7,30.26,NE,44,3.0,4.0,84,0.00,,---,0.00,VWS V14.01,2013-02-16 06:17:00,
2013-02-15 22:22:00,36.3,31.3,30.26,NE,44,3.0,4.0,82,0.00,,---,0.00,VWS V14.01,2013-02-16 06:22:00,
2013-02-15 22:27:00,36.5,30.6,30.26,NE,44,0.0,4.0,79,0.00,,---,0.00,VWS V14.01,2013-02-16 06:27:00,
2013-02-15 22:30:00,30.9,27.2,30.26,NE,44,0.0,0.0,86,0.00,,---,0.00,VWS V14.01,2013-02-16 06:30:00,
2013-02-15 22:32:00,34.8,29.3,30.26,NE,44,0.0,0.0,80,0.00,,---,0.00,VWS V14.01,2013-02-16 06:32:00,
2013-02-15 22:37:00,33.7,29.1,30.26,NE,44,0.0,0.0,83,0.00,,---,0.00,VWS V14.01,2013-02-16 06:37:00,
2013-02-15 22:42:00,33.5,29.2,30.26,NE,44,0.0,0.0,84,0.00,,---,0.00,VWS V14.01,2013-02-16 06:42:00,
2013-02-15 22:45:00,31.0,28.1,30.26,NE,44,0.0,0.0,89,0.00,,---,0.00,VWS V14.01,2013-02-16 06:45:00,
2013-02-15 22:47:00,33.7,29.7,30.26,NE,44,0.0,3.0,85,0.00,,---,0.00,VWS V14.01,2013-02-16 06:47:00,
2013-02-15 22:52:00,34.1,29.8,30.26,NE,44,0.0,3.0,84,0.00,,---,0.00,VWS V14.01,2013-02-16 06:52:00,
2013-02-15 22:57:00,33.8,29.5,30.26,NE,44,0.0,3.0,84,0.00,,---,0.00,VWS V14.01,2013-02-16 06:57:00,
2013-02-15 23:00:00,32.6,29.7,30.26,NE,44,0.0,0.0,89,0.00,,---,0.00,VWS V14.01,2013-02-16 07:00:00,
2013-02-15 23:02:00,33.5,29.2,30.26,NE,44,0.0,0.0,84,0.00,,---,0.00,VWS V14.01,2013-02-16 07:02:00,
2013-02-15 23:07:00,33.0,28.7,30.26,NE,44,0.0,0.0,84,0.00,,---,0.00,VWS V14.01,2013-02-16 07:07:00,
2013-02-15 23:12:00,32.4,28.4,30.26,NE,44,0.0,0.0,85,0.00,,---,0.00,VWS V14.01,2013-02-16 07:12:00,
2013-02-15 23:15:00,33.7,30.0,30.25,NE,44,0.0,0.0,86,0.00,,---,0.00,VWS V14.01,2013-02-16 07:15:00,
2013-02-15 23:17:00,32.0,28.3,30.26,NE,44,0.0,0.0,86,0.00,,---,0.00,VWS V14.01,2013-02-16 07:17:00,
2013-02-15 23:22:00,31.6,27.9,30.26,NE,44,0.0,0.0,86,0.00,,---,0.00,VWS V14.01,2013-02-16 07:22:00,
2013-02-15 23:27:00,31.1,27.4,30.26,NE,44,0.0,0.0,86,0.00,,---,0.00,VWS V14.01,2013-02-16 07:27:00,
2013-02-15 23:30:00,32.3,28.9,30.25,NE,48,4.0,5.0,87,0.00,,---,0.00,VWS V14.01,2013-02-16 07:30:00,
2013-02-15 23:32:00,30.7,27.3,30.26,NE,44,0.0,0.0,87,0.00,,---,0.00,VWS V14.01,2013-02-16 07:32:00,
2013-02-15 23:37:00,30.6,27.2,30.26,NE,44,0.0,0.0,87,0.00,,---,0.00,VWS V14.01,2013-02-16 07:37:00,
2013-02-15 23:42:00,30.8,28.0,30.26,NE,44,0.0,0.0,89,0.00,,---,0.00,VWS V14.01,2013-02-16 07:42:00,
2013-02-15 23:45:00,32.1,28.7,30.25,NNE,32,4.0,7.0,87,0.00,,---,0.00,VWS V14.01,2013-02-16 07:45:00,
2013-02-15 23:47:00,31.2,28.3,30.26,NE,44,0.0,0.0,89,0.00,,---,0.00,VWS V14.01,2013-02-16 07:47:00,
2013-02-15 23:52:00,31.7,28.8,30.26,NE,44,0.0,0.0,89,0.00,,---,0.00,VWS V14.01,2013-02-16 07:52:00,
2013-02-15 23:57:00,32.3,29.4,30.26,NE,44,0.0,0.0,89,0.00,,---,0.00,VWS V14.01,2013-02-16 07:57:00,